Home > Weather > Mosbach > Past weeks

Flag for Germany Past Weather in Mosbach, Baden-Württemberg, Germany — Yesterday and Last 2 Weeks

Now
79 °F

Passing clouds.


Feels Like: 80 °F
Forecast: 61 / 75 °F
Wind: 5 mph from Northwest

Location: Mannheim City

Current Time: Jul 30, 2016 at 8:50:33 PM

Latest Report: Jul 30, 2016 at 7:50 PM


Visibility: N/A

Pressure: 29.89 "Hg

Humidity: 51%

Dew Point: 59 °F

Location of MosbachLocation

Past Weather in Mosbach — Graph

°F

Mosbach Temperature Yesterday

Maximum temperature yesterday: 79 °F (at 3:50 PM)
Minimum temperature yesterday: 66 °F (at 5:50 AM)
Average temperature yesterday: 74 °F

High & Low Weather Summary for the Past Weeks

 TemperatureHumidityPressure
High95 °F (Jul 20, 4:50 PM)100% (Jul 21, 6:50 AM)30.33 "Hg (Jul 21, 6:50 AM)
Low55 °F (Jul 16, 7:20 AM)20% (Jul 20, 5:50 PM)29.89 "Hg (Jul 20, 5:50 PM)
Average76 °F63%30.06 "Hg
* Reported Jul 15 7:20 PM — Jul 30 7:50 PM, Mosbach, Weather by CustomWeather, © 2016

Note: Actual official high and low records may vary slightly from our data, if they occured in-between our weather recording intervals... More about our weather records

Advertising

Mosbach Weather History for the Previous 24 Hours

Scroll right to see more
 ConditionsComfort  
Time TempWeatherWind HumidityBarometerVisibility
7:50 PM
Sat, Jul 30
79 °FPassing clouds.5 mph51%29.89 "HgN/A
7:20 PM79 °FPassing clouds.5 mph54%29.89 "HgN/A
6:50 PM79 °FPassing clouds.5 mph51%29.89 "HgN/A
6:20 PM81 °FPassing clouds.7 mph51%29.89 "HgN/A
5:50 PM81 °FPassing clouds.7 mph51%29.89 "HgN/A
5:20 PM81 °FPassing clouds.9 mph51%29.92 "HgN/A
4:50 PM81 °FPassing clouds.7 mph51%29.92 "HgN/A
4:20 PM79 °FPassing clouds.8 mph51%29.92 "HgN/A
3:50 PM79 °FWarm.9 mph51%29.92 "HgN/A
3:20 PM79 °FPassing clouds.9 mph48%29.92 "HgN/A
2:50 PM81 °FPassing clouds.12 mph45%29.92 "HgN/A
2:20 PM81 °FBroken clouds.8 mph48%29.92 "HgN/A
1:50 PM77 °FPartly sunny.6 mph57%29.92 "HgN/A
1:20 PM77 °FBroken clouds.5 mph54%29.92 "HgN/A
12:50 PM77 °FPartly sunny.7 mph54%29.92 "HgN/A
12:20 PM77 °FScattered clouds.6 mph57%29.92 "HgN/A
11:50 AM77 °FScattered clouds.7 mph54%29.95 "HgN/A
11:20 AM75 °FPassing clouds.7 mph57%29.95 "HgN/A
10:50 AM75 °FPartly sunny.8 mph61%29.95 "HgN/A
10:20 AM73 °FPartly sunny.6 mph65%29.95 "HgN/A
9:50 AM72 °FBroken clouds.5 mph69%29.95 "HgN/A
9:20 AM72 °FBroken clouds.3 mph69%29.95 "HgN/A
8:50 AM68 °FCloudy.3 mph83%29.95 "HgN/A
8:20 AM68 °FBroken clouds.2 mph83%29.95 "HgN/A
7:50 AM66 °FBroken clouds.5 mph88%29.95 "HgN/A
7:20 AM66 °FSunny.2 mph88%29.95 "Hg10 mi
10:20 PM
Fri, Jul 29
72 °FClear.3 mph61%29.95 "Hg10 mi
8:50 PM75 °FPassing clouds.6 mph54%29.92 "HgN/A
8:20 PM77 °FPassing clouds.9 mph51%29.92 "HgN/A
Weather by CustomWeather, © 2016

See weather overviewHow to use our weather pages